EW2266 Weather Reports


Display with metric or nautical units.
time (UTC)temp
F
wind
direction
speed
MPH
gust
MPH
rain 1hr
in
rain 24hr
in
rain mn
in
humidity
%
barometer
mb
20190216190526 46 258 3.0 8.0 0.02 0.41 0.20 88 1022.3
20190216190026 46 307 3.0 8.0 0.02 0.41 0.20 87 1022.4
20190216185517 47 324 2.0 12.0 0.02 0.41 0.20 85 1022.4
20190216185019 48 320 4.0 12.0 0.01 0.40 0.19 82 1022.3
20190216184528 49 325 4.0 7.0 0.01 0.39 0.18 80 1022.2
20190216184029 50 326 3.0 12.0 0.01 0.39 0.18 78 1022.1
20190216183020 49 206 2.0 8.0 0.01 0.39 0.18 82 1021.8
20190216182529 49 314 3.0 7.0 0.01 0.39 0.18 82 1021.8
20190216182032 49 276 3.0 7.0 0.01 0.39 0.18 84 1021.9
20190216181514 48 233 2.0 6.0 0.01 0.39 0.18 85 1022.0
20190216181023 48 202 2.0 6.0 0.01 0.39 0.18 86 1022.0
20190216180524 48 46 1.0 4.0 0.01 0.39 0.18 87 1022.0
20190216180045 47 26 1.0 3.0 0.01 0.39 0.18 87 1022.1
20190216175520 47 238 1.0 4.0 0.01 0.39 0.18 87 1022.0
20190216175021 48 235 2.0 4.0 0.01 0.39 0.18 85 1022.1
20190216174534 48 227 2.0 4.0 0.00 0.38 0.17 86 1022.0
20190216174013 48 212 0.0 5.0 0.00 0.40 0.17 88 1021.9
20190216173515 48 242 1.0 5.0 0.00 0.40 0.17 87 1022.1
20190216173018 47 145 2.0 5.0 0.00 0.40 0.17 89 1022.0
20190216172525 47 197 0.0 3.0 0.00 0.40 0.17 89 1022.1
20190216172028 46 268 1.0 4.0 0.00 0.40 0.17 88 1022.1
20190216171024 46 159 4.0 10.0 0.00 0.40 0.17 88 1022.1
20190216170513 46 229 2.0 7.0 0.00 0.40 0.17 89 1022.0
20190216170033 46 242 4.0 9.0 0.00 0.40 0.17 89 1021.9
20190216165524 46 236 5.0 9.0 0.00 0.40 0.17 89 1021.9
20190216165033 46 242 3.0 7.0 0.00 0.40 0.17 90 1021.8
20190216164518 46 232 3.0 7.0 0.00 0.40 0.17 90 1021.8
20190216164018 46 202 2.0 8.0 0.00 0.40 0.17 90 1021.7
20190216163527 46 159 3.0 8.0 0.00 0.40 0.17 90 1021.6
20190216163029 46 252 3.0 9.0 0.00 0.40 0.17 90 1021.8
20190216162531 45 259 4.0 9.0 0.00 0.40 0.17 91 1021.6
20190216162013 45 264 2.0 6.0 0.00 0.40 0.17 92 1021.6
20190216161527 45 257 3.0 6.0 0.00 0.40 0.17 92 1021.6
20190216161015 44 275 3.0 5.0 0.00 0.40 0.17 93 1021.6
20190216160532 44 217 1.0 4.0 0.00 0.40 0.17 93 1021.6
20190216160025 44 269 1.0 5.0 0.00 0.40 0.17 93 1021.5
20190216155524 44 237 2.0 6.0 0.00 0.40 0.17 93 1021.3
20190216155026 44 271 2.0 6.0 0.00 0.40 0.17 93 1021.3
20190216154524 44 262 3.0 6.0 0.00 0.40 0.17 93 1021.3
20190216154025 43 262 4.0 7.0 0.00 0.40 0.17 94 1021.2
20190216153528 43 274 4.0 7.0 0.00 0.40 0.17 94 1021.2
20190216045017 42 210 0.0 2.0 0.01 0.66 0.43 93 1017.8
20190216044011 42 229 0.0 0.0 0.01 0.66 0.43 93 1017.7
20190216043514 42 98 0.0 0.0 0.01 0.66 0.43 93 1017.6
20190216043029 42 94 0.0 0.0 0.01 0.66 0.43 92 1017.6
20190216042511 42 94 0.0 0.0 0.01 0.66 0.43 92 1017.6
20190216042014 42 94 0.0 0.0 0.01 0.66 0.43 92 1017.4
20190216041516 42 94 0.0 0.0 0.01 0.66 0.43 92 1017.5
20190216041024 42 94 0.0 0.0 0.01 0.66 0.43 92 1017.5
20190216040526 42 94 0.0 0.0 0.01 0.66 0.43 92 1017.4
20190216040047 41 94 0.0 0.0 0.00 0.65 0.42 91 1017.3
20190216035517 42 94 0.0 0.0 0.00 0.65 0.42 90 1017.2
20190216034523 42 94 0.0 0.0 0.00 0.65 0.42 89 1017.1
20190216034012 42 94 0.0 0.0 0.00 0.65 0.42 89 1017.0
20190216033512 43 94 0.0 0.0 0.00 0.65 0.42 88 1017.1
20190216033011 43 94 0.0 0.0 0.00 0.65 0.42 88 1017.2
20190216032520 43 94 0.0 0.0 0.00 0.65 0.42 88 1017.2
20190216032029 43 94 0.0 0.0 0.00 0.65 0.42 88 1017.3
20190216031519 43 94 0.0 0.0 0.00 0.65 0.42 88 1017.2
20190216031020 43 136 0.0 0.0 0.00 0.65 0.42 87 1017.2
20190216030529 44 136 0.0 0.0 0.00 0.65 0.42 87 1017.1
20190216030023 43 214 0.0 0.0 0.00 0.65 0.42 87 1017.2
20190216025513 43 217 0.0 1.0 0.00 0.65 0.42 88 1017.1
20190216025023 43 217 0.0 2.0 0.00 0.65 0.42 88 1017.1
20190216024525 43 150 0.0 1.0 0.00 0.65 0.42 88 1017.0
20190216024033 43 111 0.0 1.0 0.00 0.65 0.42 87 1016.9
20190216023515 43 68 0.0 1.0 0.00 0.65 0.42 87 1016.9
20190216023018 44 68 0.0 1.0 0.00 0.65 0.42 86 1016.9
20190216022519 44 67 0.0 1.0 0.00 0.65 0.42 85 1016.8
20190216022028 44 70 0.0 1.0 0.00 0.65 0.42 85 1016.8
20190216021531 45 321 0.0 2.0 0.00 0.65 0.42 84 1016.6
20190216021012 45 322 1.0 6.0 0.00 0.65 0.42 83 1016.5
20190216020513 45 247 3.0 6.0 0.00 0.65 0.42 82 1016.3
20190216020024 45 164 0.0 3.0 0.00 0.65 0.42 82 1016.3
20190216015522 45 221 1.0 10.0 0.00 0.65 0.42 82 1016.3
20190216015024 46 307 0.0 10.0 0.00 0.65 0.42 82 1016.3
20190216014527 46 279 4.0 9.0 0.00 0.65 0.42 83 1016.2
20190216014035 46 195 1.0 9.0 0.00 0.65 0.42 83 1016.1
20190216013517 46 157 1.0 9.0 0.00 0.65 0.42 83 1016.1
20190216013026 46 217 1.0 5.0 0.00 0.65 0.42 82 1016.0
20190216012515 46 295 1.0 6.0 0.00 0.65 0.42 82 1015.9
20190216012025 46 247 2.0 5.0 0.00 0.65 0.42 81 1015.9
20190216011527 47 248 2.0 8.0 0.00 0.65 0.42 82 1015.9
20190216011028 47 248 3.0 10.0 0.00 0.65 0.42 81 1015.9
20190216010537 47 270 5.0 8.0 0.00 0.65 0.42 81 1015.8
20190216010030 48 203 2.0 6.0 0.00 0.65 0.42 79 1015.8
20190216005521 48 252 3.0 6.0 0.00 0.65 0.42 78 1015.7
20190216004523 48 252 1.0 5.0 0.00 0.65 0.42 77 1015.6
20190216004024 48 205 1.0 6.0 0.00 0.65 0.42 78 1015.6
20190216003534 48 283 2.0 8.0 0.00 0.65 0.42 76 1015.7
20190216003015 49 255 5.0 8.0 0.00 0.65 0.42 74 1015.9
20190216002517 49 263 3.0 9.0 0.00 0.65 0.42 76 1015.9
20190216002019 49 263 3.0 10.0 0.00 0.65 0.42 77 1015.9
20190216001526 49 219 3.0 9.0 0.00 0.65 0.42 78 1016.1
20190216001027 49 190 3.0 8.0 0.00 0.65 0.42 78 1016.1
20190216000529 48 226 3.0 9.0 0.01 0.65 0.42 78 1016.0
20190216000029 48 301 6.0 10.0 0.01 0.65 0.42 77 1016.0
20190215235520 48 261 2.0 8.0 0.01 0.65 0.42 79 1016.0
20190215235022 48 255 4.0 8.0 0.01 0.65 0.42 80 1016.0
20190215234532 47 269 2.0 4.0 0.03 0.65 0.42 82 1016.0
20190215234013 47 276 1.0 4.0 0.03 0.66 0.42 83 1016.0
20190215233515 47 181 1.0 6.0 0.03 0.66 0.42 81 1016.0
20190215233024 47 207 1.0 10.0 0.03 0.66 0.42 80 1016.0
20190215232526 47 222 2.0 8.0 0.03 0.66 0.42 80 1015.9
20190215232027 47 262 3.0 7.0 0.03 0.66 0.42 80 1015.7
20190215231537 46 245 3.0 8.0 0.03 0.66 0.42 80 1015.5
20190215231019 46 205 3.0 8.0 0.03 0.66 0.42 82 1015.4
20190215230521 47 243 4.0 8.0 0.02 0.65 0.41 83 1015.8
20190215230041 47 261 2.0 11.0 0.02 0.65 0.41 85 1015.6
20190215225015 49 242 4.0 9.0 0.01 0.64 0.40 81 1015.4
20190215224524 49 263 2.0 7.0 0.00 0.63 0.39 81 1015.1
20190215224033 49 147 3.0 11.0 0.00 0.64 0.39 80 1015.0
20190215223515 49 141 5.0 11.0 0.00 0.64 0.39 82 1015.0
20190215223016 49 204 1.0 5.0 0.00 0.64 0.39 83 1015.0
20190215222525 49 155 2.0 8.0 0.00 0.64 0.39 82 1015.1
20190215222028 49 145 4.0 13.0 0.00 0.64 0.39 82 1015.2
20190215221531 50 259 5.0 13.0 0.00 0.64 0.39 83 1015.1
20190215221059 49 223 5.0 11.0 0.01 0.64 0.39 84 1015.0
20190215220530 48 185 5.0 10.0 0.01 0.64 0.39 85 1015.1
20190215220043 48 272 3.0 7.0 0.01 0.64 0.39 87 1015.2
20190215215514 47 248 3.0 6.0 0.01 0.64 0.39 89 1015.2
20190215215022 47 251 1.0 3.0 0.03 0.64 0.39 91 1015.1
20190215214525 46 207 0.0 3.0 0.06 0.64 0.39 90 1015.2
20190215214026 46 263 1.0 3.0 0.06 0.75 0.39 91 1015.2
20190215213535 46 207 1.0 3.0 0.06 0.75 0.39 90 1015.2
20190215213024 45 248 0.0 3.0 0.06 0.75 0.39 90 1015.4
20190215212526 45 223 1.0 7.0 0.06 0.75 0.39 90 1015.5
20190215212036 45 220 2.0 7.0 0.06 0.75 0.39 89 1015.8
20190215211514 45 255 2.0 5.0 0.05 0.74 0.38 89 1016.1
20190215211016 46 222 0.0 6.0 0.05 0.74 0.38 90 1015.8
20190215210519 45 211 3.0 9.0 0.05 0.74 0.38 89 1015.8
20190215210126 45 219 2.0 13.0 0.05 0.74 0.38 86 1015.7
20190215205532 45 167 7.0 14.0 0.05 0.74 0.38 81 1015.8
20190215205015 48 142 8.0 14.0 0.03 0.72 0.36 75 1016.0
20190215204517 49 166 6.0 12.0 0.00 0.69 0.33 77 1015.6
20190215204025 50 227 6.0 12.0 0.01 0.71 0.33 76 1015.6
20190215203527 50 228 5.0 15.0 0.02 0.71 0.33 76 1015.6
20190215203036 50 237 5.0 15.0 0.05 0.71 0.33 76 1015.8
20190215202518 50 224 7.0 14.0 0.05 0.71 0.33 75 1015.6
20190215202020 50 221 7.0 14.0 0.05 0.71 0.33 76 1015.6
20190215201523 50 274 4.0 13.0 0.05 0.71 0.33 80 1015.7
20190215201031 50 238 7.0 13.0 0.05 0.71 0.33 80 1015.7
20190215200513 49 248 4.0 9.0 0.05 0.71 0.33 84 1015.7
20190215195524 48 267 5.0 11.0 0.06 0.71 0.33 86 1015.7
20190215195026 47 161 3.0 13.0 0.06 0.71 0.33 86 1015.8
20190215194536 47 246 4.0 17.0 0.06 0.71 0.33 83 1015.9
20190215194028 47 198 8.0 17.0 0.05 0.96 0.32 81 1016.0
20190215193530 49 179 7.0 17.0 0.03 0.94 0.30 78 1016.1
20190215193039 49 203 5.0 14.0 0.01 0.92 0.28 79 1015.6
20190215192528 49 255 7.0 12.0 0.01 0.92 0.28 80 1015.6
20190215192017 49 186 2.0 8.0 0.01 0.92 0.28 82 1015.6
20190215191520 49 203 3.0 8.0 0.01 0.92 0.28 81 1015.6
20190215191021 49 207 3.0 12.0 0.01 0.92 0.28 79 1015.7